User: anonymous   Login
Location: Unspecified
(0.0000°N, 0.0000°E)
Time: 11:04:22
(UTC+00:00)
Language:

SWISSCUBE - Orbit

View from above orbital plane
View from above orbital plane
View from above satellite
View from above satellite

Ground track
Ground track

The orbit data is extracted from the following two-line orbital elements,

1 35932U 09051B   16145.08082527  .00000249  00000-0  67701-4 0  9996
2 35932  98.4449 271.8809 0007837  17.4935 342.6531 14.55809924353700
Epoch (UTC): 24 May 2016 01:56:23
Eccentricity: 0.0007837
inclination: 98.4449°
perigee height: 701 km
apogee height: 712 km
right ascension of ascending node: 271.8809°
argument of perigee: 17.4935°
revolutions per day: 14.55809924
mean anomaly at epoch: 342.6531°
orbit number at epoch: 35370

The dashed part of the orbit path shows where the satellite is in the earth's shadow,  

DLR